Weather History for Nashville, TN

Change the Weather History Date:

Monday, October 8, 2012

  Actual Average Record
Temperature  
Mean Temperature 53 °F 63 °F  
Max Temperature 62 °F 74 °F 91 °F (1939)
Min Temperature 43 °F 52 °F 30 °F (1889)
Degree Days  
Heating Degree Days 12 4  
Month to date heating degree days 40 28  
Since 1 July heating degree days 62 52  
Cooling Degree Days 0 2  
Month to date cooling degree days 5 21  
Year to date cooling degree days 1959 1615  
Growing Degree Days 3 (Base 50)    
Moisture  
Dew Point 39 °F    
Average Humidity 68    
Maximum Humidity 96    
Minimum Humidity 39    
Precipitation  
Precipitation 0.04 in 0.09 in 2.93 in (1959)
Month to date precipitation 2.06 0.80  
Year to date precipitation 37.96 36.46  
Snow  
Snow 0.00 in 0.00 in 0.00 in (2002)
Month to date snowfall 0.0 0.0  
Since 1 July snowfall 0.0 0.0  
Since 1 September snowfall 0.0 0.0  
Snow Depth 0.00 in    
Sea Level Pressure  
Sea Level Pressure 30.19 in    
Wind  
Wind Speed 2 mph (NNW)    
Max Wind Speed 9 mph    
Max Gust Speed 16 mph    
Visibility 10 miles    
Events Rain    
T = Trace of Precipitation, MM = Missing Value Source: NWS Daily Summary

Daily Weather History Graph

Daily Weather History Graph

Search for Another Location

Airport:

Trip Planner

Search our weather history database for the weather conditions in past years. The results will help you decide how hot, cold, wet, or windy it might be!

Date:

Astronomy

Oct. 08, 2012 Rise Set
Actual Time 6:48 AM CDT 6:19 PM CDT
Civil Twilight 6:22 AM CDT 6:45 PM CDT
Nautical Twilight 5:52 AM CDT 7:15 PM CDT
Astronomical Twilight 5:22 AM CDT 7:44 PM CDT
Moon No Moon Rise 1:57 PM CDT (10/8)
Length of Visible Light 12h 23m
Length of Day
11h 31m
Last Quarter, 46% of the Moon is Illuminated
Oct 8
Last Quarter
Oct 15
New
Oct 21
First Quarter
Oct 29
Full
Nov 6
Last Quarter

Hourly Weather History & Observations

Time (CDT) Temp. Windchill Dew Point Humidity Pressure Visibility Wind Dir Wind Speed Gust Speed Precip Events Conditions
12:53 AM 48.9 °F - 37.0 °F 64% 30.18 in 10.0 mi North 4.6 mph - N/A   Overcast
1:53 AM 48.9 °F - 37.0 °F 64% 30.19 in 10.0 mi NNE 5.8 mph - N/A   Overcast
2:53 AM 48.9 °F - 37.0 °F 64% 30.17 in 10.0 mi NNE 6.9 mph - N/A   Overcast
3:53 AM 48.0 °F - 37.0 °F 66% 30.19 in 10.0 mi NNW 3.5 mph - N/A   Overcast
4:53 AM 46.9 °F - 39.0 °F 74% 30.19 in 10.0 mi East 3.5 mph - 0.01 in   Overcast
5:53 AM 46.0 °F - 43.0 °F 89% 30.22 in 10.0 mi Calm Calm - 0.00 in Rain Light Rain
6:53 AM 46.0 °F 43.1 °F 42.1 °F 86% 30.22 in 10.0 mi NNW 5.8 mph - 0.03 in Rain Light Rain
7:53 AM 46.9 °F - 42.1 °F 83% 30.23 in 10.0 mi Calm Calm - 0.00 in   Overcast
8:53 AM 48.0 °F - 41.0 °F 77% 30.24 in 10.0 mi Calm Calm - N/A   Overcast
9:53 AM 50.0 °F - 43.0 °F 77% 30.23 in 10.0 mi Calm Calm - N/A   Mostly Cloudy
10:53 AM 53.1 °F - 42.1 °F 66% 30.23 in 10.0 mi Calm Calm - N/A   Mostly Cloudy
11:53 AM 57.9 °F - 43.0 °F 58% 30.22 in 10.0 mi NW 4.6 mph - N/A   Overcast
12:53 PM 57.9 °F - 39.9 °F 51% 30.20 in 10.0 mi NW 4.6 mph - N/A   Mostly Cloudy
1:53 PM 57.9 °F - 37.0 °F 46% 30.17 in 10.0 mi NNW 4.6 mph - N/A   Mostly Cloudy
2:53 PM 59.0 °F - 37.0 °F 44% 30.15 in 10.0 mi Calm Calm - N/A   Scattered Clouds
3:53 PM 61.0 °F - 35.1 °F 38% 30.14 in 10.0 mi Calm Calm - N/A   Partly Cloudy
4:53 PM 61.0 °F - 35.1 °F 38% 30.14 in 10.0 mi Variable 3.5 mph - N/A   Partly Cloudy
5:53 PM 57.9 °F - 35.1 °F 42% 30.14 in 10.0 mi Calm Calm - N/A   Partly Cloudy
6:53 PM 52.0 °F - 37.9 °F 59% 30.14 in 10.0 mi Calm Calm - N/A   Partly Cloudy
7:53 PM 50.0 °F - 41.0 °F 71% 30.15 in 10.0 mi Calm Calm - N/A   Clear
8:53 PM 48.0 °F - 42.1 °F 80% 30.16 in 10.0 mi South 4.6 mph - N/A   Clear
9:53 PM 45.0 °F 42.6 °F 42.1 °F 90% 30.17 in 10.0 mi South 4.6 mph - N/A   Clear
10:53 PM 44.1 °F 42.5 °F 41.0 °F 89% 30.17 in 10.0 mi South 3.5 mph - N/A   Clear
11:53 PM 43.0 °F 41.3 °F 41.0 °F 93% 30.17 in 10.0 mi South 3.5 mph - N/A   Clear